Tracking 30157 objects as of 12-Feb-2025
HD Live streaming from Space Station
objects crossing your sky now

PEGASUS DEB

Track PEGASUS DEB now!
10-day predictions


NORAD ID: 24978
Int'l Code: 1994-029ACL
Perigee: 396.1 km
Apogee: 541.3 km
Inclination: 81.4 °
Period: 93.8 minutes
Semi major axis: 6839 km
RCS: 0.0093 m2 (small)
Launch date: May 19, 1994
Source: United States (US)
Launch site: AIR FORCE WESTERN TEST RANGE (AFWTR)

Note: This is SATELLITE DEBRIS
Your satellite tracking list
Your tracking list is empty




NASA's NSSDC Master Catalog

Two Line Element Set (TLE):
1 24978U 94029ACL 25042.67443709  .00120816  00000-0  29407-2 0  9999
2 24978  81.4154  27.9346 0106158 117.7283 243.4774 15.34784198483552
Source of the keplerian elements: AFSPC